カタログに戻る

FENGYUN 1C DEB

運用中PO
NORAD 37704·DEBRIS·🇨🇳 China

打ち上げ May 10, 1999 から Taiyuan Satellite Launch Center

Loading…

次のパス (今後24時間)

TLE

最新Source: Space-Track

元期: Sep 12, 2026, 22:18 UTC

1 37704U 99025ELV 26255.92962425  .00001084  00000-0  10182-2 0  9992
2 37704  98.3382  57.8913 0240415 162.2188 350.6398 13.71148927661216

AllMySatでFENGYUN 1C DEBをリアルタイム追跡

Download on the App Store